Find Kosmos-1434

NORAD ID: 13766 Int'l Des: 1983-002 Owner: GUKOS Country: SU operational
LEOCIRCULAR

Live-Position

3D-Globus wird geladen...

Über Kosmos-1434

Beschreibung wird geladen...

Nächste Überflüge

Passes for default location (London). Set your location on the main map for personalized predictions.

Höhenverlauf

Loading altitude history...

Zweizeiliger Elementsatz

1 13766U 83002F 26106.72502109 -.00000025 00000-0 -53747-4 0 9996
2 13766 74.0222 262.1518 0023665 327.3015 43.7987 12.53822403979373
Epoch: 16. Apr. 2026 • Age: 21 hours

Aktueller Status

Höhe 1446.0 km
Geschwindigkeit 7.15 km/s
Subsatellitenpunkt -42.17°S, 172.24°W
Startdatum 19. Jan. 1983
Alter 43.2 years
Typ other

Technische Details

Klassifizierung Payload
Masse 60.00 kg
Trockenmasse 60.00 kg
Gesamtmasse 60.00 kg
Länge 0.80 m
Durchmesser 0.80 m
Spannweite 0.80 m
Form Poly
Hersteller NPOPM
Bus-Typ Strela-1 11F625
Phasenstatus In Orbit
Besitzer/Staat GUKOS/SU

Most Searched